Le nostre stazioni meteo in Italia

Pubblicità
Il mio iltempo24.it
Luqa, Malta (16597): Temperatura & dewpoint: 14.01.2018 06:00:00 - 20.01.2018 06:00:00 (CET)Luqa, Malta (16597): velocità del vento: 14.01.2018 06:00:00 - 20.01.2018 06:00:00 (CET)Luqa, Malta (16597): direzione del vento: 14.01.2018 06:00:00 - 20.01.2018 06:00:00 (CET)Luqa, Malta (16597): reduced air pressure: 14.01.2018 06:00:00 - 20.01.2018 06:00:00 (CET)Luqa, Malta (16597): visibility: 14.01.2018 06:00:00 - 20.01.2018 06:00:00 (CET)
Data & Tempo tt [°C] td [°C] ff [km/h] ff [kn] dd ppp [hPa] vv [km]
20.01.2018 06:00:00 - - - - - - -
20.01.2018 05:00:00 11,0 10,0 4 2 N - 10
20.01.2018 04:00:00 11,8 9,7 4 2 N 1014,3 10
20.01.2018 03:00:00 12,0 9,0 8 4 N - 10
20.01.2018 02:00:00 14,0 10,0 4 2 SSO - 10
20.01.2018 01:00:00 14,1 9,8 9 5 SSO 1015,7 10
20.01.2018 00:00:00 14,0 10,0 9 5 SSO - 10
19.01.2018 23:00:00 14,0 9,0 9 5 SSO - 10
19.01.2018 22:00:00 12,4 8,1 11 6 SSO 1017,4 10
19.01.2018 21:00:00 13,0 8,0 5 3 SO - 10
19.01.2018 20:00:00 13,0 8,0 5 3 OSO - 10
19.01.2018 19:00:00 13,6 7,8 5 3 OSO 1017,1 10
19.01.2018 18:00:00 14,0 8,0 9 5 SO - 10
19.01.2018 17:00:00 14,0 8,0 9 5 OSO - 10
19.01.2018 16:00:00 14,7 7,8 15 8 OSO 1017,2 10
19.01.2018 15:00:00 15,0 8,0 11 6 SO - 10
19.01.2018 14:00:00 15,0 8,0 15 8 OSO - 10
19.01.2018 13:00:00 15,7 7,7 16 9 SO 1018,6 10
19.01.2018 12:00:00 15,0 7,0 9 5 SO - 10
19.01.2018 11:00:00 15,0 7,0 13 7 SSO - 10
19.01.2018 10:00:00 13,9 7,7 11 6 SO 1020,8 10
19.01.2018 09:00:00 13,0 7,0 8 4 O - 10
19.01.2018 08:00:00 12,0 7,0 8 4 OSO - 10
19.01.2018 07:00:00 12,2 7,0 11 6 SO 1020,8 10
19.01.2018 06:00:00 12,0 7,0 9 5 OSO - 10
19.01.2018 05:00:00 12,0 7,0 9 5 O - 10
19.01.2018 04:00:00 11,9 6,4 9 5 O 1021,3 10
19.01.2018 03:00:00 12,0 7,0 9 5 O - 10
19.01.2018 02:00:00 11,0 6,0 9 5 O - 10
19.01.2018 01:00:00 10,4 6,2 9 5 O 1022,8 10
19.01.2018 00:00:00 10,0 6,0 8 4 O - 10
18.01.2018 23:00:00 10,0 6,0 11 6 O - 10
18.01.2018 22:00:00 10,1 5,3 9 5 O 1023,2 10
18.01.2018 21:00:00 10,0 5,0 0 0 N - 10
18.01.2018 20:00:00 10,0 5,0 8 4 O - 10
18.01.2018 19:00:00 11,2 3,7 8 4 O 1024,3 10
18.01.2018 18:00:00 11,0 4,0 8 4 ONO - 10
18.01.2018 17:00:00 13,0 4,0 8 4 O - 10
18.01.2018 16:00:00 14,6 4,4 15 8 NO 1023,4 10
18.01.2018 15:00:00 15,0 4,0 16 9 NNO - 10
18.01.2018 14:00:00 16,0 1,0 13 7 NNO - 10
18.01.2018 13:00:00 15,3 4,1 15 8 NNO 1023,7 10
18.01.2018 12:00:00 15,0 4,0 16 9 N - 10
18.01.2018 11:00:00 15,0 4,0 15 8 N - 10
18.01.2018 10:00:00 14,5 4,7 26 14 N 1023,3 10
18.01.2018 09:00:00 14,0 4,0 26 14 N - 10
18.01.2018 08:00:00 13,0 4,0 24 13 N - 10
18.01.2018 07:00:00 11,8 4,7 22 12 N 1021,0 10
18.01.2018 06:00:00 12,0 4,0 26 14 N - 10
18.01.2018 05:00:00 12,0 6,0 18 10 N - 10
18.01.2018 04:00:00 12,6 2,9 24 13 NNO 1018,7 10
18.01.2018 03:00:00 13,0 3,0 31 17 NNO - 10
18.01.2018 02:00:00 13,0 6,0 31 17 NNO - 10
18.01.2018 01:00:00 13,8 6,3 34 18 NNO 1017,5 10
18.01.2018 00:00:00 14,0 6,0 44 24 NNO - 10
17.01.2018 23:00:00 15,0 7,0 46 25 NO - 10
17.01.2018 22:00:00 15,0 8,2 41 22 ONO 1016,3 10
17.01.2018 21:00:00 15,0 9,0 44 24 ONO - 10
17.01.2018 20:00:00 15,0 11,0 39 21 ONO - 10
17.01.2018 19:00:00 15,2 10,4 39 21 ONO 1015,4 10
17.01.2018 18:00:00 15,0 9,0 34 18 ONO - 10
17.01.2018 17:00:00 15,0 8,0 37 20 ONO - 10
17.01.2018 16:00:00 16,1 7,7 34 18 NO 1015,3 10
17.01.2018 15:00:00 17,0 8,0 39 21 ONO - 10
17.01.2018 14:00:00 17,0 7,0 29 16 ONO - 10
17.01.2018 13:00:00 16,9 9,6 29 16 ONO 1016,1 10
17.01.2018 12:00:00 17,0 11,0 26 14 O - 10
17.01.2018 11:00:00 16,0 11,0 28 15 O - 10
17.01.2018 10:00:00 16,1 8,1 22 12 O 1018,3 10
17.01.2018 09:00:00 16,0 8,0 26 14 ONO - 10
17.01.2018 08:00:00 14,0 9,0 21 11 O - 10
17.01.2018 07:00:00 13,4 9,3 22 12 O 1018,6 10
17.01.2018 06:00:00 14,0 9,0 22 12 O - 10
17.01.2018 05:00:00 14,0 10,0 24 13 O - 10
17.01.2018 04:00:00 13,5 10,2 24 13 O 1020,1 10
17.01.2018 03:00:00 14,0 10,0 22 12 ONO - 10
17.01.2018 02:00:00 14,0 10,0 24 13 ONO - 10
17.01.2018 01:00:00 14,1 9,5 34 18 ONO 1021,3 10
17.01.2018 00:00:00 14,0 10,0 26 14 ONO - 10
16.01.2018 23:00:00 14,0 10,0 24 13 ONO - 10
16.01.2018 22:00:00 13,8 10,2 21 11 ONO 1023,4 10
16.01.2018 21:00:00 13,0 10,0 22 12 ONO - 10
16.01.2018 20:00:00 14,0 10,0 18 10 ONO - 10
16.01.2018 19:00:00 13,8 10,1 21 11 ONO 1023,7 10
16.01.2018 18:00:00 13,0 10,0 16 9 ONO - 10
16.01.2018 17:00:00 14,0 10,0 21 11 ONO - 10
16.01.2018 16:00:00 15,3 9,8 22 12 ONO 1023,5 10
16.01.2018 15:00:00 16,0 9,0 28 15 ONO - 10
16.01.2018 14:00:00 16,0 9,0 24 13 ONO - 10
16.01.2018 13:00:00 16,3 7,8 24 13 ONO 1024,7 10
16.01.2018 12:00:00 16,0 8,0 24 13 NO - 10
16.01.2018 11:00:00 16,0 9,0 21 11 ONO - 10
16.01.2018 10:00:00 14,8 9,5 18 10 ONO 1026,2 10
16.01.2018 09:00:00 14,0 10,0 15 8 ONO - 10
16.01.2018 08:00:00 11,0 9,0 9 5 O - 10
16.01.2018 07:00:00 10,4 7,8 11 6 ONO 1025,6 10
16.01.2018 06:00:00 11,0 8,0 9 5 ONO - 10
16.01.2018 05:00:00 11,0 8,0 13 7 O - 10
16.01.2018 04:00:00 9,5 6,7 5 3 OSO 1025,5 10
16.01.2018 03:00:00 11,0 7,0 9 5 ONO - 10
16.01.2018 02:00:00 11,0 8,0 13 7 ONO - 10
16.01.2018 01:00:00 10,9 7,8 8 4 O 1025,5 10
16.01.2018 00:00:00 11,0 7,0 11 6 ONO - 10
15.01.2018 23:00:00 11,0 7,0 9 5 ONO - 10
15.01.2018 22:00:00 11,2 7,8 8 4 O 1025,8 10
15.01.2018 21:00:00 12,0 7,0 8 4 ONO - 10
15.01.2018 20:00:00 12,0 8,0 5 3 ONO - 10
15.01.2018 19:00:00 13,2 7,9 5 3 OSO 1024,6 10
15.01.2018 18:00:00 13,0 8,0 8 4 OSO - 10
15.01.2018 17:00:00 14,0 8,0 5 3 O - 10
15.01.2018 16:00:00 14,9 7,6 8 4 O 1023,5 10
15.01.2018 15:00:00 15,0 7,0 11 6 O - 10
15.01.2018 14:00:00 15,0 7,0 13 7 OSO - 10
15.01.2018 13:00:00 15,9 8,2 16 9 OSO 1024,4 10
15.01.2018 12:00:00 15,0 9,0 13 7 OSO - 10
15.01.2018 11:00:00 16,0 9,0 11 6 OSO - 10
15.01.2018 10:00:00 14,6 8,1 9 5 OSO 1025,1 10
15.01.2018 09:00:00 14,0 8,0 11 6 OSO - 10
15.01.2018 08:00:00 13,0 8,0 9 5 OSO - 10
15.01.2018 07:00:00 13,5 8,1 13 7 OSO 1023,8 10
15.01.2018 06:00:00 13,0 8,0 11 6 OSO - 10
15.01.2018 05:00:00 13,0 8,0 9 5 SO - 10
15.01.2018 04:00:00 13,0 7,1 9 5 SO 1023,2 10
15.01.2018 03:00:00 13,0 7,0 11 6 SO - 10
15.01.2018 02:00:00 13,0 7,0 13 7 SO - 10
15.01.2018 01:00:00 13,2 6,9 13 7 SO 1024,0 10
15.01.2018 00:00:00 13,0 6,0 15 8 SO - 10
14.01.2018 23:00:00 13,0 6,0 13 7 SO - 10
14.01.2018 22:00:00 12,5 6,5 11 6 SSO 1024,0 10
14.01.2018 21:00:00 13,0 6,0 11 6 SO - 10
14.01.2018 20:00:00 13,0 6,0 15 8 SSO - 10
14.01.2018 19:00:00 13,0 7,0 13 7 SSO 1023,1 10
14.01.2018 18:00:00 13,0 7,0 13 7 SO - 10
14.01.2018 17:00:00 14,0 8,0 9 5 SSO - 10
14.01.2018 16:00:00 14,4 7,8 8 4 SO 1022,4 10
14.01.2018 15:00:00 15,0 8,0 11 6 OSO - 10
14.01.2018 14:00:00 15,0 9,0 13 7 SO - 10
14.01.2018 13:00:00 15,6 8,5 13 7 OSO 1022,5 10
14.01.2018 12:00:00 16,0 9,0 13 7 SO - 10
14.01.2018 11:00:00 15,0 8,0 8 4 NNE - 10
14.01.2018 10:00:00 13,4 9,8 5 3 SO 1023,1 10
14.01.2018 09:00:00 12,0 9,0 5 3 O - 10
14.01.2018 08:00:00 10,0 8,0 5 3 O - 10
14.01.2018 07:00:00 9,8 8,0 9 5 O 1021,6 10
14.01.2018 06:00:00 9,0 7,0 8 4 ONO - 10

tt = Temperatura
td = dewpoint
ff = velocità del vento
dd = direzione del vento
ppp = reduced air pressure
vv = visibility

Stazioni seguenti

WeatherPro
AMSI
MeteoEarth